Vorticity
13 9 18 13 21 4 43 23 -11 9 5 38 -19 4 28 22 2 14 7 10 2 11 10 8 3 6 10 4 -0 3 1 10 -5 48 23 13 29 -17 5 -15 -1 1 -2 -5
9 9 24 7 18 16 23 17 27 7 38 32 25 -26 35 27 26 14 13 -27 17 1 9 3 -4 9 5 13 -2 4 -10 8 -1 8 2 5 70 11 67 14 3 -7 -24 5
13 19 0 33 4 40 8 -17 -9 1 44 6 30 24 48 27 14 4 10 17 -4 16 4 1 -0 9 -1 7 9 11 -6 -5 -4 -20 28 5 -5 3 6 33 58 -2 -7 16
3 15 16 8 5 19 29 6 3 -5 -32 1 35 7 48 8 3 4 8 17 20 24 15 4 29 20 15 24 22 16 17 16 9 13 15 -7 24 12 -17 -15 0 9 15 11
23 11 5 10 2 -14 26 19 9 13 -1 4 18 0 -4 46 20 -16 -8 2 5 2 8 7 5 2 1 -1 1 4 7 7 11 17 12 12 21 3 9 36 42 26 5 4
21 5 5 15 -9 32 13 5 22 16 8 1 17 21 -23 12 17 41 -21 20 5 -20 2 7 1 -2 4 14 13 -1 -1 3 8 4 7 8 5 5 3 2 3 -17 -2 1
5 10 13 32 16 12 4 -34 2 1 7 15 2 -8 13 25 23 41 18 15 9 15 -11 3 17 13 9 7 11 16 17 12 -9 1 2 3 1 4 8 6 7 11 12 1
15 -4 16 17 22 37 11 15 16 6 8 19 -8 7 11 15 31 16 59 40 5 -3 7 8 14 7 7 7 9 10 12 18 21 12 -0 6 6 5 3 4 0 -1 6 10
4 8 4 6 -2 -1 -5 16 31 11 9 5 18 5 6 9 7 14 20 20 24 17 10 12 10 13 7 14 9 3 9 15 24 26 8 0 0 -5 -3 8 6 7 12 8
17 6 9 2 6 8 10 14 4 8 7 11 10 3 22 5 3 4 4 7 6 9 12 11 12 13 13 11 10 9 5 6 9 18 20 9 10 13 9 6 9 9 8 5
0 17 22 -6 17 15 -5 5 7 10 13 13 8 15 11 6 2 3 8 10 12 14 14 16 16 14 15 13 10 8 7 6 5 5 7 12 12 11 10 9 9 11 11 10
22 15 6 19 11 6 7 9 6 17 8 15 16 23 21 4 3 8 9 5 4 3 4 4 6 8 8 7 7 7 8 7 6 8 10 9 9 13 19 20 15 17 11 12
-1 19 -5 5 1 2 3 -1 14 3 7 14 9 24 18 5 2 3 5 5 2 1 3 3 3 3 1 2 4 7 5 2 3 3 4 3 3 1 -0 0 5 14 14 14
24 -22 13 12 20 14 7 5 3 1 6 10 12 29 8 4 3 2 -0 2 4 4 3 3 4 5 5 4 1 1 4 12 17 16 12 10 9 9 6 3 4 5 7 13
19 10 12 10 14 15 2 7 4 3 7 3 11 10 26 9 3 1 1 2 2 1 0 1 0 2 2 4 8 10 11 12 12 13 13 13 16 16 12 12 11 6 6 6
5 14 4 3 9 12 16 17 5 3 6 7 6 5 12 5 4 4 4 2 0 -3 1 3 6 7 8 10 11 11 10 10 10 10 9 11 10 10 14 15 13 12 12 11
8 10 5 10 8 7 8 12 19 14 10 5 14 4 11 8 11 7 4 -4 0 2 3 5 7 9 9 10 11 11 10 10 8 8 10 10 9 10 13 14 13 13 10 11
13 10 7 13 7 9 8 16 10 9 9 9 7 7 6 6 5 5 4 1 2 8 8 6 8 9 9 8 9 9 9 9 11 10 10 13 11 10 9 11 14 13 12 11
8 5 8 11 13 0 20 13 7 8 7 18 12 9 11 14 15 12 11 8 6 8 9 9 10 10 8 9 10 12 12 12 11 10 10 12 13 12 14 12 13 14 12 12
5 5 -1 9 9 7 -1 13 14 11 14 15 12 11 11 10 7 9 9 10 12 10 7 8 12 12 12 13 14 14 15 15 14 13 10 9 12 9 14 15 13 15 14 11
18 15 5 5 5 11 9 13 8 16 9 3 5 7 7 8 6 5 6 8 9 11 14 15 13 13 13 12 13 14 14 14 15 18 19 16 13 14 14 15 14 16 14 11
10 8 12 13 7 18 11 14 14 4 4 2 3 4 3 1 7 6 6 12 11 8 9 10 10 9 8 8 7 5 6 7 9 11 14 17 22 16 15 13 13 16 14 11
8 0 3 0 5 1 -1 3 4 6 7 7 6 3 2 6 6 9 9 8 6 7 8 5 4 5 4 4 4 3 3 2 0 -0 3 9 9 21 20 13 12 14 14 9
11 10 -2 7 14 10 10 10 6 6 7 6 5 5 7 8 9 10 7 7 9 9 7 6 5 4 4 5 6 8 9 6 7 6 3 3 5 10 14 26 9 15 15 11
7 6 5 8 12 12 11 11 9 8 8 9 8 10 9 11 9 8 7 11 10 7 7 6 5 6 8 10 11 11 10 11 11 10 12 11 8 8 11 16 20 5 20 13
9 8 8 7 7 6 6 8 9 9 10 10 11 11 8 7 7 9 10 9 8 7 7 5 6 11 14 15 17 18 17 16 15 14 16 16 16 14 12 12 22 3 16 17
Height
3016 3015 3011 3012 3012 3012 3016 3020 3024 3030 3035 3040 3039 3043 3048 3052 3059 3066 3070 3075 3078 3080 3083 3088 3096 3099 3102 3105 3108 3114 3119 3121 3123 3126 3129 3131 3135 3141 3142 3144 3147 3150 3153 3154
3015 3012 3011 3010 3010 3010 3016 3020 3027 3031 3033 3038 3039 3041 3044 3049 3055 3061 3066 3072 3077 3081 3084 3088 3093 3099 3102 3097 3106 3113 3116 3116 3119 3124 3127 3130 3131 3133 3132 3136 3141 3144 3146 3144
3013 3013 3012 3010 3008 3012 3018 3022 3023 3029 3029 3035 3040 3045 3042 3047 3055 3060 3064 3068 3078 3081 3085 3089 3093 3097 3101 3103 3106 3109 3113 3116 3117 3121 3120 3122 3123 3125 3125 3128 3130 3136 3137 3137
3013 3014 3013 3013 3013 3014 3019 3025 3027 3028 3031 3039 3039 3040 3041 3046 3053 3060 3065 3069 3074 3080 3083 3087 3091 3094 3099 3101 3104 3106 3108 3111 3112 3115 3116 3114 3115 3118 3121 3121 3124 3130 3127 3128
3015 3014 3014 3015 3017 3018 3022 3025 3028 3031 3034 3039 3039 3042 3045 3043 3048 3056 3064 3069 3074 3078 3085 3089 3092 3095 3097 3100 3101 3104 3107 3107 3107 3109 3110 3111 3110 3112 3111 3115 3119 3118 3120 3123
3015 3015 3015 3015 3018 3020 3022 3026 3030 3033 3037 3041 3039 3039 3045 3048 3051 3053 3058 3065 3070 3076 3081 3087 3091 3094 3096 3098 3100 3102 3103 3102 3105 3107 3108 3108 3109 3110 3109 3110 3113 3115 3117 3120
3017 3017 3016 3014 3019 3023 3025 3029 3033 3038 3037 3040 3041 3042 3050 3046 3048 3050 3059 3063 3068 3073 3080 3085 3088 3091 3093 3093 3093 3095 3095 3097 3102 3104 3104 3105 3106 3108 3109 3108 3109 3111 3113 3114
3019 3022 3016 3019 3021 3025 3028 3030 3029 3032 3038 3040 3044 3051 3055 3053 3051 3053 3056 3062 3066 3073 3079 3082 3084 3086 3088 3089 3091 3091 3093 3097 3098 3100 3101 3102 3103 3105 3106 3107 3106 3108 3109 3109
3020 3022 3022 3023 3026 3030 3030 3030 3031 3033 3039 3043 3052 3057 3058 3059 3058 3058 3059 3063 3069 3072 3077 3080 3081 3083 3085 3087 3088 3089 3092 3095 3093 3094 3097 3098 3098 3100 3102 3102 3102 3102 3103 3103
3023 3025 3028 3029 3031 3031 3032 3034 3036 3036 3043 3050 3057 3057 3059 3062 3062 3063 3066 3070 3072 3074 3077 3078 3080 3082 3084 3086 3087 3088 3088 3089 3090 3091 3092 3094 3094 3093 3094 3095 3095 3096 3096 3096
3023 3024 3031 3032 3032 3033 3036 3036 3038 3039 3042 3046 3051 3057 3059 3062 3064 3066 3069 3071 3072 3074 3075 3077 3079 3081 3083 3083 3084 3086 3087 3086 3085 3087 3090 3087 3086 3087 3089 3087 3088 3089 3089 3090
3024 3028 3030 3033 3034 3036 3036 3037 3037 3037 3043 3043 3048 3057 3057 3061 3065 3069 3071 3072 3074 3076 3078 3078 3079 3079 3079 3079 3081 3082 3082 3082 3081 3083 3080 3081 3082 3080 3079 3080 3080 3080 3082 3083
3029 3031 3031 3035 3039 3038 3037 3039 3041 3041 3043 3046 3049 3057 3057 3061 3065 3068 3071 3072 3074 3076 3077 3078 3078 3078 3079 3078 3081 3081 3080 3078 3078 3077 3076 3074 3073 3073 3074 3074 3073 3074 3075 3075
3030 3032 3033 3035 3035 3036 3039 3041 3043 3043 3047 3049 3051 3053 3055 3059 3063 3066 3068 3069 3070 3071 3072 3074 3074 3074 3074 3074 3075 3072 3070 3070 3071 3070 3068 3067 3066 3066 3066 3065 3065 3066 3065 3066
3032 3033 3034 3036 3037 3038 3039 3041 3044 3044 3047 3050 3052 3051 3053 3058 3062 3064 3066 3067 3067 3067 3067 3068 3068 3069 3068 3068 3068 3066 3066 3064 3063 3061 3059 3058 3057 3057 3057 3057 3058 3057 3057 3058
3034 3035 3036 3038 3040 3043 3044 3046 3047 3048 3049 3051 3052 3055 3057 3060 3061 3063 3064 3064 3063 3063 3063 3063 3062 3061 3061 3061 3060 3059 3056 3054 3054 3052 3050 3048 3048 3047 3047 3047 3046 3047 3049 3050
3036 3037 3040 3042 3043 3044 3047 3046 3047 3049 3051 3052 3052 3055 3058 3059 3060 3060 3061 3060 3059 3059 3059 3059 3058 3056 3054 3051 3049 3049 3048 3046 3045 3042 3041 3041 3040 3039 3038 3037 3036 3038 3038 3039
3037 3038 3039 3041 3043 3046 3046 3045 3047 3048 3049 3049 3050 3052 3054 3055 3056 3057 3057 3056 3056 3055 3054 3052 3051 3049 3046 3043 3042 3041 3040 3039 3036 3034 3032 3030 3029 3029 3028 3027 3027 3027 3028 3029
3039 3040 3040 3043 3043 3044 3044 3045 3046 3047 3048 3048 3050 3051 3051 3051 3052 3053 3053 3052 3051 3050 3048 3046 3044 3041 3038 3036 3034 3033 3032 3029 3026 3024 3022 3021 3020 3020 3018 3017 3016 3016 3017 3019
3039 3040 3043 3044 3044 3044 3045 3044 3045 3046 3046 3046 3046 3048 3049 3049 3049 3050 3048 3047 3046 3044 3042 3039 3037 3034 3031 3029 3027 3024 3022 3019 3017 3014 3012 3011 3009 3009 3008 3007 3007 3007 3007 3009
3038 3040 3042 3043 3043 3042 3042 3042 3043 3046 3050 3045 3046 3046 3046 3046 3046 3045 3043 3042 3039 3037 3035 3033 3030 3027 3025 3022 3020 3017 3014 3011 3008 3006 3004 3002 3000 2998 2997 2997 2996 2996 2996 2997
3040 3041 3041 3043 3043 3043 3042 3042 3044 3045 3043 3043 3043 3043 3042 3042 3040 3039 3037 3035 3033 3030 3028 3026 3024 3021 3017 3014 3013 3010 3007 3004 3001 2998 2995 2993 2991 2988 2987 2986 2986 2986 2986 2987
3041 3041 3041 3043 3042 3041 3041 3041 3042 3041 3041 3041 3041 3039 3038 3037 3035 3033 3031 3029 3026 3024 3022 3019 3017 3014 3010 3007 3003 3001 2998 2995 2993 2991 2988 2985 2983 2980 2978 2976 2976 2976 2977 2978
3038 3038 3039 3040 3039 3039 3039 3039 3039 3039 3038 3037 3036 3035 3033 3032 3029 3027 3024 3021 3019 3016 3012 3009 3007 3004 3001 2998 2994 2990 2987 2985 2982 2980 2978 2976 2972 2971 2968 2967 2967 2967 2967 2969
3037 3036 3036 3036 3037 3037 3037 3036 3035 3034 3034 3032 3031 3029 3028 3025 3022 3021 3018 3014 3010 3007 3004 3000 2996 2993 2991 2987 2984 2979 2975 2972 2971 2969 2966 2964 2962 2960 2959 2958 2958 2957 2957 2957
3034 3034 3034 3033 3033 3033 3032 3031 3030 3029 3028 3027 3026 3024 3021 3018 3015 3012 3009 3005 3002 2999 2995 2990 2987 2983 2979 2976 2973 2969 2965 2962 2959 2956 2954 2952 2951 2950 2948 2947 2947 2947 2947 2946